EDT,Max TemperatureF,Mean TemperatureF,Min TemperatureF,Max Dew PointF,MeanDew PointF,Min DewpointF,Max Humidity, Mean Humidity, Min Humidity, Max Sea Level PressureIn, Mean Sea Level PressureIn, Min Sea Level PressureIn, Max VisibilityMiles, Mean VisibilityMiles, Min VisibilityMiles, Max Wind SpeedMPH, Mean Wind SpeedMPH, Max Gust SpeedMPH,PrecipitationIn, CloudCover, Events, WindDirDegrees
2012-10-1,70,63,55,61,57,52,93,80,66,29.99,29.95,29.90,10,10,6,9,3,12,0.01,7,Rain,92
2012-10-2,85,75,65,76,71,61,100,90,79,29.96,29.90,29.86,10,6,0,17,6,22,0.20,7,Fog-Rain,149
2012-10-3,85,80,74,75,73,70,100,81,61,30.14,30.06,29.95,10,8,6,12,5,14,0.00,7,,192
2012-10-4,82,74,65,74,66,63,94,74,54,30.18,30.15,30.12,10,9,5,13,5,17,T,7,Rain,251
2012-10-5,82,72,61,64,59,54,100,70,39,30.17,30.10,30.01,10,10,9,12,3,15,0.00,2,,213
2012-10-6,84,70,56,62,57,44,93,69,44,30.04,29.94,29.87,10,10,7,18,8,25,0.00,3,,244
2012-10-7,58,53,47,50,48,43,100,79,57,30.19,30.10,30.03,10,8,1,17,6,21,0.67,7,Rain,13
2012-10-8,51,48,45,48,45,41,100,90,80,30.30,30.23,30.17,10,10,7,14,8,20,0.08,7,Rain,4
2012-10-9,59,54,48,54,50,46,96,91,86,30.19,30.14,30.08,10,8,2,15,8,20,0.09,8,Rain,355
2012-10-10,71,63,54,55,51,46,100,71,41,30.09,30.01,29.94,10,9,4,16,7,23,0.00,4,,261
2012-10-11,65,55,44,47,39,30,86,58,30,30.33,30.24,30.12,10,10,10,17,5,23,0.00,0,,3
2012-10-12,72,58,44,47,42,36,93,61,29,30.43,30.25,30.16,10,10,10,21,5,28,0.00,1,,9
2012-10-13,63,51,39,43,37,32,85,59,32,30.53,30.44,30.35,10,10,10,12,5,16,0.00,2,,73
2012-10-14,75,60,45,58,51,44,93,69,44,30.35,30.20,30.01,10,10,10,21,8,26,0.00,4,,191
2012-10-15,69,62,55,64,60,54,100,87,73,30.00,29.83,29.71,10,10,4,18,9,25,0.15,7,Rain,210
2012-10-16,68,58,47,54,46,42,93,68,42,29.96,29.91,29.84,10,10,6,15,4,17,0.00,1,,325
2012-10-17,71,58,44,51,48,43,100,74,47,30.04,29.98,29.94,10,10,10,15,5,17,0.00,4,,174
2012-10-18,75,60,45,62,53,45,100,77,53,29.98,29.91,29.81,10,8,1,16,7,21,T,4,,145
2012-10-19,79,66,53,65,59,41,100,70,39,29.80,29.74,29.65,10,7,2,18,8,23,0.05,5,Rain,176
2012-10-20,72,59,45,45,42,39,92,64,35,29.95,29.81,29.72,10,10,10,14,5,18,0.00,3,,283
2012-10-21,68,56,44,43,40,37,89,62,34,30.16,30.09,29.96,10,10,10,12,3,22,0.00,2,,311
2012-10-22,73,57,41,47,42,36,92,60,27,30.25,30.19,30.15,10,10,10,9,1,13,0.00,0,,254
2012-10-23,82,65,47,54,48,44,86,58,30,30.18,30.13,30.08,10,10,10,15,4,17,0.00,3,,201
2012-10-24,84,68,52,58,54,50,93,65,37,30.17,30.12,30.07,10,10,10,8,3,10,0.00,3,,188
2012-10-25,80,68,55,61,58,54,93,72,50,30.20,30.16,30.13,10,8,5,12,4,13,0.00,1,,113
2012-10-26,71,67,63,64,62,61,93,83,73,30.18,30.10,30.02,10,5,1,12,7,28,0.09,8,Rain,22
2012-10-27,67,64,60,60,57,52,97,83,68,29.99,29.89,29.79,10,10,10,18,11,25,0.00,8,,27
2012-10-28,61,57,53,52,50,45,93,75,57,29.79,29.64,29.52,10,8,2,25,17,35,0.21,8,Rain,360
2012-10-29,53,48,43,52,46,40,96,91,86,29.51,29.26,29.00,10,5,2,31,21,40,1.96,8,Rain,304
2012-10-30,47,43,38,40,38,35,92,82,71,29.53,29.29,29.01,10,8,4,28,13,35,0.49,8,Rain,216
2012-10-31,56,47,37,36,35,33,85,66,46,29.71,29.62,29.52,10,10,10,16,9,25,0.00,6,,247